Location: Unspecified
(54.1780°N, 0.0000°E)
Time: 20:28:12
(UTC+00:00)

Altair - Pass Details

Date: 19 June 2019
Orbit: 1501 x 1683 km, 47.2° (Epoch: 18 July)

Event Time Altitude Azimuth Distance (km) Brightness Sun altitude
Rises 00:13:55 0° 267° (W) 4,809 10.0 -12.4°
Reaches altitude 10° 00:17:02 10° 263° (W) 3,847 9.5 -12.3°
Maximum altitude 00:26:35 57° 189° (S) 1,895 7.7 -12.2°
Drops below altitude 10° 00:36:24 10° 114° (ESE) 3,941 9.5 -12.0°
Sets 00:39:38 0° 111° (ESE) 4,933 10.0 -12.0°
